CAPE
1046 949 909 546 157 17 1 83 114 169 120 81 6 8 9 43 50 0 1 0 14 217 422 677 1419 1140 1637 1738 1231 1008 1341 1773 1472 1741 1727 1555 1769 1523 1624 1617 1486 1309 1590 1489 1747 1720 1872 1674 1526
1281 1057 870 752 86 7 0 76 69 130 198 76 40 60 76 85 3 15 1 1 180 260 353 528 1416 1348 1706 1804 1040 1269 1726 1616 1585 1672 1596 1524 1657 1719 1456 1231 1377 1336 1571 1424 1772 1791 1822 1663 1813
312 758 615 297 40 45 4 68 154 134 71 9 34 13 43 45 9 1 0 183 217 420 301 582 1298 1400 1754 1597 1046 1328 1528 1757 1497 1230 1514 1492 1687 1790 1498 895 1073 1468 1509 1703 1761 1799 1776 1873 2000
780 947 952 466 126 87 81 90 132 78 7 11 3 28 0 0 0 0 25 256 304 574 362 1120 879 984 1720 1582 1181 1383 1571 1782 1283 1402 1570 1380 1702 1622 1691 1428 1335 1397 1615 1604 1626 1551 1467 1327 1879
109 71 119 101 92 177 138 145 114 63 27 0 0 5 30 15 0 2 33 162 324 679 526 750 1439 1173 1491 1500 1229 1240 1172 1687 1115 1608 1704 1501 1609 1596 1607 1542 1579 1641 1693 1542 1520 1571 1422 1426 1394
62 57 3 4 29 200 167 142 108 88 31 4 0 4 13 1 0 2 9 58 496 927 787 729 1093 1266 1812 1482 1242 1313 1158 1534 1659 1279 1656 1507 1632 1614 1628 1515 1419 1477 1409 1413 1220 1249 1306 1374 1427
0 41 57 99 75 138 212 137 125 82 34 17 0 0 44 0 0 10 7 92 532 1103 636 543 547 912 1685 1538 1592 1630 1148 1350 1209 1667 1339 1699 1443 1570 1514 1479 1622 1742 1268 1278 1258 1276 985 899 952
114 143 162 10 29 36 102 157 163 103 63 12 0 0 84 1 194 282 175 449 699 1157 879 811 588 1522 1313 1281 1670 1565 1381 1137 1299 1699 1471 1349 1650 1504 1496 1730 1832 1432 1428 1174 1017 626 748 850 693
158 100 126 92 11 76 76 158 127 33 18 12 0 0 0 201 445 353 454 630 964 1087 1015 905 904 752 935 906 1159 1605 1569 1127 1075 1123 1478 1352 740 1092 1171 1293 1588 1435 1279 1100 727 570 692 765 1045
203 11 159 42 0 83 38 96 55 41 4 0 14 10 129 293 365 371 281 468 703 932 1009 850 818 712 847 1224 1009 1035 1064 616 569 1053 739 890 720 677 1348 1545 1654 1544 1366 1323 1062 931 1261 499 519
47 93 139 27 115 48 37 91 84 0 6 0 0 2 92 283 370 324 347 363 367 598 961 897 614 574 737 996 647 548 462 519 541 739 520 835 851 807 1300 1062 1273 1217 1649 869 924 893 603 240 452
205 222 51 84 91 46 58 37 35 0 0 0 13 2 86 247 309 294 246 166 194 203 703 650 500 401 395 296 472 394 382 595 575 613 326 254 526 398 543 354 716 798 783 578 476 471 432 469 524
394 202 131 245 60 76 67 103 56 0 0 0 5 9 66 179 192 115 100 72 80 178 169 254 310 254 181 172 237 293 412 736 564 447 335 266 195 203 356 39 546 774 842 468 310 360 237 241 326
599 523 202 257 186 259 182 74 32 0 0 12 19 30 41 93 89 49 6 5 7 12 81 106 164 139 91 116 206 268 400 552 491 350 301 413 278 176 203 269 328 511 397 423 299 435 66 8 16
547 203 34 90 161 289 88 11 48 16 40 52 0 2 24 44 91 59 30 5 5 0 20 10 50 51 51 92 168 276 311 427 416 365 335 351 303 153 304 155 208 221 104 236 328 232 166 171 53
49 17 3 105 198 280 28 1 45 43 58 32 14 0 1 3 20 28 54 24 4 8 25 20 85 84 58 80 141 189 210 268 306 276 312 482 372 191 317 262 176 144 30 130 173 103 76 113 105
0 0 1 13 163 335 71 20 93 22 33 12 0 0 0 0 0 0 0 0 0 0 3 13 62 130 117 95 150 172 199 208 265 182 308 400 463 239 181 165 113 92 105 134 214 26 0 25 10
0 0 0 6 38 107 154 144 83 28 13 8 0 0 0 0 0 0 0 0 0 0 1 26 81 174 177 192 181 115 99 160 140 136 181 542 440 197 114 199 160 116 53 48 120 75 0 0 8
0 0 0 1 129 259 155 207 108 15 6 0 0 0 0 0 0 0 0 0 0 0 0 8 48 68 158 336 362 210 228 169 243 171 249 434 592 468 191 235 244 99 112 95 122 133 63 250 228
0 0 0 16 283 255 272 254 206 16 0 0 0 0 0 0 0 0 0 0 0 0 0 0 28 27 99 305 434 325 198 137 332 284 388 732 699 610 353 278 264 128 88 50 200 330 254 361 395
0 0 0 0 297 254 385 184 276 133 26 0 0 0 0 0 0 0 0 0 0 0 0 0 0 69 163 248 209 88 56 82 184 178 100 588 718 591 620 384 370 297 89 45 233 293 328 439 267
0 0 0 243 159 15 183 122 0 116 127 56 14 0 0 0 0 0 0 0 0 0 0 0 0 0 202 291 329 406 367 297 251 220 26 142 769 583 488 537 441 395 169 76 270 212 265 234 510
0 0 164 194 3 115 290 319 117 3 86 110 150 58 18 0 0 0 0 0 0 0 0 0 0 0 203 377 415 408 428 27 60 57 80 29 152 512 837 783 547 456 252 193 280 352 359 342 405
0 0 0 0 0 0 0 333 1 15 115 136 115 283 106 19 0 0 0 0 0 0 0 0 0 0 174 393 415 439 507 54 106 121 140 7 10 0 269 669 853 745 420 276 315 415 464 486 489
0 0 0 0 0 0 0 267 228 0 0 130 181 210 363 330 143 16 5 0 0 0 0 0 0 0 253 421 445 438 448 138 147 190 238 52 0 0 0 453 595 696 441 327 378 399 440 582 593
0 0 0 0 0 0 0 0 0 0 241 0 194 855 673 488 28 166 78 34 0 0 0 0 27 75 345 424 481 443 418 258 186 214 238 156 66 6 0 62 472 744 652 490 460 500 419 466 586
0 0 0 0 0 0 0 0 5 537 1013 978 1147 1009 1020 869 577 0 139 105 26 1 2 57 164 260 387 428 448 350 332 285 222 289 192 139 40 3 50 76 313 600 1046 566 706 677 633 660 648
0 0 0 0 0 0 0 0 7 704 1066 1144 1144 966 959 802 341 184 142 82 77 142 256 208 227 327 367 442 439 366 240 263 315 286 268 157 89 0 62 197 607 682 987 900 566 749 780 803 773
0 0 0 0 0 0 0 3 0 148 761 1027 1028 975 910 713 451 476 524 527 476 467 430 436 487 435 295 417 411 414 310 291 361 485 439 327 247 221 172 414 639 848 956 909 836 659 987 895 889
0 0 0 0 0 0 0 0 0 0 104 656 959 1003 836 651 475 568 630 627 580 462 287 226 428 476 204 191 286 281 369 504 675 784 736 605 547 508 583 493 570 961 1058 927 908 737 1176 1098 947
CIN
-10 -1 -4 -16 -30 -48 -11 -34 -42 -67 -10 -31 -47 -40 -36 -71 -47 0 0 0 -15 -12 -6 -3 0 0 0 0 0 0 0 0 0 0 0 0 0 0 0 0 0 0 0 0 0 0 0 0 0
-3 -1 -3 -2 -49 -45 0 -46 -61 -48 -33 -20 -48 -37 -35 -28 0 -31 -2 -46 -26 -12 -7 -4 0 0 0 0 0 0 0 0 0 0 0 0 0 0 0 -2 0 0 0 0 0 0 0 0 0
-168 -22 -3 -33 -94 -31 -11 -40 -60 -67 -63 -61 -48 -73 -36 -67 0 0 0 -6 -15 -8 -24 -3 0 0 0 0 0 0 0 0 0 0 0 0 0 0 0 -1 0 0 0 0 0 0 0 0 0
-63 -7 -1 -34 -37 -46 -46 -79 -72 -73 -78 -89 -100 -61 0 -4 0 0 -72 -4 -11 -5 -15 -1 0 0 0 0 0 0 0 0 0 0 0 0 0 0 0 0 0 0 0 0 0 0 0 0 0
-264 -218 -120 -102 -56 -49 -96 -107 -74 -71 -72 0 0 -21 -81 -5 0 -54 -91 -24 -21 -5 -7 -2 0 0 0 0 -1 0 0 0 0 0 0 0 0 0 0 0 0 0 0 0 0 -1 -4 -2 -2
-276 -244 -95 -32 -83 -56 -96 -101 -84 -81 -111 -83 0 -128 -27 -13 0 -120 -99 -167 -14 -2 -5 -3 0 0 0 0 -1 0 0 0 0 0 0 0 0 0 0 0 0 0 0 0 0 0 -4 -6 -4
0 -271 -124 -109 -94 -36 -53 -113 -71 -101 -125 -122 0 0 -135 0 -16 -96 -145 -91 -8 -2 -7 -12 -8 -3 0 0 0 0 0 0 0 0 0 0 0 0 0 0 0 0 0 0 0 0 -7 -11 -13
-415 -268 -142 -57 -143 -69 -106 -76 -116 -100 -106 -185 0 0 -107 -12 -49 -13 -32 -14 -14 -10 -8 -8 -13 -6 -7 -5 0 0 0 -1 0 0 0 0 0 0 0 0 0 0 -1 0 -3 -23 -14 -21 -31
-473 -270 -168 -152 -132 -130 -143 -73 -131 -205 -206 -156 0 0 0 -77 -3 -8 -2 0 0 -4 -10 -11 -13 -30 -26 -29 -8 -1 0 -5 -1 -6 0 -4 -27 -13 -14 -7 0 0 0 -2 -16 -27 -27 -16 -20
-344 -300 -212 -269 0 -198 -148 -94 -119 -167 -38 0 -166 -112 -123 -31 -7 0 -1 0 0 0 -3 -13 -25 -45 -35 -14 -17 -22 -24 -51 -49 -17 -27 -27 -32 -43 -19 -4 0 0 0 -2 -4 -1 -13 -87 -87
-401 -301 -295 -299 -208 -197 -172 -134 -128 0 -94 0 0 0 -78 -22 -1 -3 0 -13 -32 -17 -1 -13 -48 -65 -50 -28 -58 -71 -86 -78 -59 -36 -47 -33 -32 -34 -19 -28 -28 -18 -5 -33 -20 -21 -53 -106 -72
-207 -238 -356 -243 -220 -219 -181 -132 -165 0 0 0 -208 -68 -101 -19 -3 -19 -30 -38 -50 -63 -26 -41 -54 -68 -81 -116 -85 -93 -92 -74 -66 -48 -72 -86 -55 -82 -84 -98 -51 -43 -58 -51 -57 -68 -83 -73 -82
-229 -248 -294 -265 -292 -291 -244 -242 -238 0 0 0 -79 -38 -49 -44 -32 -25 -34 -43 -78 -59 -108 -141 -144 -149 -135 -153 -139 -119 -103 -76 -83 -77 -87 -102 -105 -112 -92 -179 -71 -46 -53 -69 -81 -87 -110 -115 -119
-192 -216 -275 -281 -297 -268 -263 -341 -296 0 0 -145 -198 -131 -45 -31 -34 -39 -49 -76 -147 -208 -149 -169 -167 -172 -219 -230 -174 -140 -124 -115 -113 -125 -111 -99 -110 -133 -108 -103 -92 -71 -96 -85 -98 -94 -158 -202 -221
-211 -230 -252 -296 -305 -261 -336 -248 -357 -438 -371 -336 0 0 -118 -69 -36 -90 -104 -186 -260 0 -208 -238 -227 -263 -319 -265 -215 -147 -153 -136 -125 -125 -121 -126 -129 -157 -108 -119 -103 -112 -146 -117 -91 -114 -138 -125 -179
-270 -297 -181 -203 -346 -271 -338 -67 -513 -500 -452 -394 -370 0 -78 -111 -146 -89 -136 -170 -255 -260 -233 -270 -180 -227 -316 -302 -225 -166 -178 -159 -148 -152 -148 -132 -144 -174 -121 -109 -117 -128 -174 -135 -119 -148 -162 -158 -176
0 -108 -245 -285 -341 -267 -331 -270 -535 -619 -540 -520 0 0 0 0 0 0 0 0 0 0 -141 -276 -206 -188 -237 -285 -226 -210 -179 -166 -151 -185 -155 -152 -151 -168 -171 -128 -132 -130 -125 -112 -109 -163 0 -168 -214
0 0 0 -254 -262 -335 -309 -308 -582 -690 -688 -617 0 0 0 0 0 0 0 0 0 0 -285 -275 -209 -172 -209 -230 -217 -256 -278 -212 -206 -208 -211 -153 -161 -179 -192 -138 -118 -132 -144 -136 -113 -135 0 0 -89
0 0 0 -217 -327 -325 -294 -297 -568 -713 -739 0 0 0 0 0 0 0 0 0 0 0 0 -386 -318 -306 -234 -191 -184 -225 -206 -223 -194 -215 -194 -172 -139 -136 -165 -134 -100 -149 -136 -142 -126 -103 -101 -77 -91
0 0 0 -255 -335 -261 -312 -330 -525 -676 0 0 0 0 0 0 0 0 0 0 0 0 0 0 -340 -352 -274 -181 -162 -187 -229 -267 -210 -206 -193 -142 -144 -136 -160 -149 -103 -120 -140 -156 -93 -74 -76 -62 -60
0 0 0 0 -341 -371 -317 -244 -452 -669 -709 0 0 0 0 0 0 0 0 0 0 0 0 0 0 -366 -302 -239 -255 -299 -300 -344 -282 -271 -277 -172 -151 -146 -135 -158 -135 -113 -154 -162 -116 -96 -88 -63 -95
0 0 0 -302 -214 -199 -361 -121 -1 -595 -658 -690 -714 0 0 0 0 0 0 0 0 0 0 0 0 -44 -316 -273 -241 -218 -175 -187 -234 -227 -298 -267 -150 -158 -156 -132 -130 -136 -161 -165 -108 -131 -116 -108 -84
0 0 -300 -345 -21 -319 -332 -201 -294 -180 -547 -599 -588 -691 -729 -7 0 0 0 0 0 0 0 0 0 0 -351 -285 -275 -255 -201 -285 -323 -308 -237 -298 -246 -161 -120 -112 -120 -109 -144 -164 -113 -105 -107 -112 -112
0 0 0 0 0 0 0 -256 -85 -81 -343 -402 -569 -539 -618 -712 -228 0 0 0 0 0 0 0 0 0 -420 -323 -305 -292 -258 -358 -304 -255 -246 -348 -384 0 -182 -108 -86 -85 -116 -159 -140 -97 -107 -114 -117
0 0 0 0 0 0 0 -294 -205 0 0 -415 -406 -558 -534 -566 -601 -679 -426 0 0 0 0 0 0 0 -457 -381 -345 -339 -326 -340 -316 -275 -242 -263 0 0 0 -158 -129 -93 -135 -170 -151 -120 -119 -109 -107
0 0 0 0 0 0 0 0 0 0 -511 0 -331 -385 -456 -516 -663 -540 -638 -663 0 0 0 0 -746 -640 -483 -432 -399 -372 -331 -338 -296 -311 -289 -257 -316 -90 0 -325 -155 -112 -114 -127 -132 -126 -134 -131 -116
0 0 0 0 0 0 0 0 -29 -349 -309 -319 -246 -287 -326 -434 -550 -57 -587 -624 -678 -428 -116 -749 -728 -628 -574 -490 -407 -394 -368 -342 -335 -345 -331 -328 -351 -36 -363 -316 -201 -138 -78 -129 -100 -98 -119 -106 -113
0 0 0 0 0 0 0 0 -84 -172 -173 -271 -297 -386 -463 -588 -709 -639 -626 -683 -985 -916 -843 -736 -654 -597 -568 -485 -448 -413 -414 -382 -331 -356 -336 -335 -392 0 -360 -241 -168 -143 -102 -97 -124 -96 -101 -92 -99
0 0 0 0 0 0 0 -17 0 -218 -219 -217 -309 -437 -541 -623 -807 -863 -916 -862 -824 -772 -716 -583 -516 -502 -503 -498 -426 -415 -398 -383 -373 -346 -343 -358 -385 -371 -350 -257 -186 -136 -118 -112 -83 -112 -81 -87 -90
0 0 0 0 0 0 0 0 0 0 -380 -356 -385 -387 -562 -684 -786 -794 -725 -700 -674 -635 -590 -456 -393 -378 -423 -424 -353 -338 -287 -298 -298 -285 -313 -365 -354 -366 -324 -282 -240 -160 -130 -124 -95 -105 -63 -68 -85
Wind_Speed
7 4 1 1 1 1 3 3 3 7 5 2 5 1 4 4 1 3 4 3 13 10 9 11 16 16 16 17 16 16 15 13 13 12 11 10 11 11 10 9 11 12 12 13 15 14 14 14 13
5 4 1 2 1 2 4 3 7 6 8 5 8 4 4 3 4 8 4 5 14 9 6 8 15 15 15 17 15 15 14 14 12 11 10 10 10 11 11 10 13 13 14 14 13 13 14 14 13
5 1 1 1 2 2 2 1 8 11 11 4 4 6 3 2 6 10 6 11 12 7 7 8 15 15 15 16 14 14 13 12 12 11 10 10 10 11 13 14 15 14 13 13 13 13 13 12 12
4 3 1 2 2 3 2 4 12 14 6 5 7 7 3 3 9 5 12 12 11 7 7 12 15 15 14 16 13 13 11 11 10 11 10 10 10 12 13 16 15 13 13 13 13 12 12 11 13
2 2 2 3 3 1 3 7 8 6 5 7 4 6 3 3 2 14 12 12 11 7 5 8 13 14 15 14 13 12 10 10 10 8 10 10 10 11 12 14 14 12 12 12 12 11 10 11 10
4 3 4 4 6 2 4 9 9 4 5 7 6 5 5 1 12 11 12 11 10 10 5 6 13 13 14 13 12 11 10 8 8 8 9 9 9 8 10 12 12 12 11 11 11 10 10 10 9
6 4 2 2 7 4 2 7 5 5 5 3 10 5 4 6 10 9 10 9 9 8 7 4 5 10 13 13 12 10 9 8 7 8 7 7 8 8 8 9 10 10 10 10 10 9 10 10 7
3 4 4 0 3 1 5 6 9 6 4 7 4 6 8 8 10 9 10 9 9 6 7 5 5 4 6 6 12 10 9 8 6 6 6 6 7 8 6 5 7 10 9 8 8 9 10 8 6
2 3 4 3 2 5 6 6 3 6 8 3 4 4 12 14 14 11 11 9 8 6 6 6 5 4 5 4 5 9 10 8 7 6 5 4 2 3 5 4 6 8 9 8 7 7 7 7 6
2 3 1 5 6 4 4 5 6 4 7 4 8 15 20 16 14 14 13 12 12 10 8 6 6 5 5 4 3 4 4 3 3 3 2 3 1 1 4 4 7 7 8 9 8 7 6 4 3
1 0 1 5 5 2 2 6 6 9 5 6 13 19 21 19 13 14 13 12 10 9 7 7 5 5 5 3 2 1 1 2 2 3 3 3 2 1 1 1 0 0 6 2 4 5 2 3 3
4 4 3 1 2 2 2 6 4 3 4 4 18 22 21 19 14 16 14 6 8 8 9 7 6 5 5 3 3 3 3 2 2 3 3 3 2 2 2 2 2 1 2 3 3 2 3 3 4
2 3 2 2 3 5 7 5 6 5 5 14 18 19 20 16 15 11 12 7 6 7 7 7 8 7 6 5 3 3 4 3 3 3 4 3 3 3 2 3 2 2 2 3 3 3 3 3 3
8 7 4 6 6 2 6 5 6 4 10 15 17 18 15 15 17 15 16 15 13 11 8 7 9 8 6 6 5 5 3 4 3 3 4 5 4 3 3 3 3 2 2 2 3 3 3 3 1
5 6 7 5 2 2 0 2 3 12 13 16 16 12 13 10 12 17 19 14 13 10 7 9 9 8 8 7 6 4 4 3 3 3 4 6 5 5 4 3 3 3 3 3 2 2 2 2 1
1 2 5 7 2 1 5 5 5 9 13 12 15 12 12 12 10 7 10 9 8 10 8 10 10 10 8 6 5 3 3 3 3 3 4 6 5 6 5 4 3 3 3 3 2 2 1 1 2
4 3 4 8 4 2 2 2 6 9 8 10 10 12 13 11 10 8 9 7 7 8 7 9 9 9 10 8 6 5 5 4 3 3 3 6 6 6 5 3 2 4 4 3 3 2 2 2 2
5 4 6 6 6 3 4 1 9 11 9 9 9 10 10 12 16 13 12 13 9 7 7 7 8 9 8 4 3 2 3 3 3 3 4 7 4 5 5 4 4 5 4 3 3 2 3 3 3
3 5 7 4 2 1 3 2 9 11 9 8 9 10 12 14 10 10 11 11 10 7 8 9 8 6 7 3 3 2 5 3 3 3 5 5 5 6 6 3 4 5 5 5 5 3 4 3 3
5 2 5 2 3 1 7 2 8 14 11 13 13 12 14 11 10 11 11 11 11 11 11 10 11 9 8 6 3 2 2 2 1 2 4 6 7 7 6 6 5 5 4 4 6 4 3 2 4
3 5 5 4 2 1 3 7 5 9 6 10 11 14 14 16 16 15 14 15 12 12 12 12 13 12 12 11 4 2 2 1 1 3 3 5 7 7 7 7 6 6 4 5 6 6 5 3 3
2 8 5 9 5 3 3 6 5 4 11 15 16 15 16 17 16 13 14 15 17 16 10 11 11 11 10 11 9 10 8 7 5 4 3 4 7 8 7 6 6 7 6 6 6 5 4 3 4
8 6 8 4 5 4 1 3 6 4 7 12 14 19 18 18 18 18 18 17 18 16 14 12 10 11 12 13 12 10 9 5 3 3 5 5 5 7 8 7 8 6 6 7 7 5 5 3 3
6 6 8 6 3 4 2 4 7 1 5 2 9 13 17 19 19 20 19 17 16 12 14 12 13 13 13 13 14 14 14 8 5 4 5 4 3 3 5 5 6 7 6 7 7 6 6 5 3
7 7 3 5 3 6 4 5 10 9 4 4 8 11 15 18 19 21 23 20 18 18 17 14 15 14 13 14 14 14 14 10 11 8 6 5 4 4 8 7 7 5 7 7 7 6 6 7 5
4 6 6 2 2 2 3 3 6 6 5 2 2 3 6 8 16 19 21 19 19 20 18 14 12 13 14 13 15 13 12 8 8 7 6 5 6 7 7 8 7 7 7 7 7 6 5 5 6
1 5 4 8 3 3 3 6 5 6 9 6 6 7 7 7 4 11 14 17 16 13 14 16 14 14 13 15 11 10 10 9 9 8 5 5 4 5 5 7 9 7 7 8 8 6 8 6 7
1 5 5 5 1 1 5 4 5 3 3 1 5 7 7 7 8 2 4 8 6 8 7 10 11 14 13 11 11 10 11 10 9 5 8 8 6 5 5 5 6 7 8 7 9 7 6 7 5
5 4 7 6 4 5 1 7 7 6 6 5 5 3 3 5 6 5 5 6 8 8 12 12 10 10 6 9 9 10 10 10 8 9 8 10 6 7 8 6 6 7 8 8 8 8 8 10 8
2 3 4 6 2 2 3 8 3 5 1 4 6 5 3 4 6 6 6 5 4 4 6 0 6 4 5 6 4 1 5 4 6 8 9 8 10 7 9 9 9 9 9 8 10 9 8 10 9
Wind_Direction
155 149 208 330 294 37 253 201 107 135 130 273 165 142 148 22 109 196 119 131 128 139 146 142 136 134 128 119 117 116 119 117 111 113 113 116 118 117 114 125 131 131 122 123 116 112 111 112 114
131 143 267 290 234 335 283 141 152 154 124 115 74 30 50 88 85 113 113 145 132 134 131 141 139 136 135 123 123 121 118 116 113 106 108 105 110 114 105 105 128 126 115 119 112 110 111 114 118
124 81 219 156 182 255 253 147 119 112 138 124 98 41 18 67 103 139 118 135 132 118 130 150 143 140 140 127 124 119 117 121 109 105 101 98 113 106 104 102 121 114 112 112 110 109 107 114 116
166 159 250 256 306 285 195 127 130 134 107 129 121 83 93 31 137 151 138 127 126 118 132 152 148 145 143 130 129 123 116 110 106 103 102 104 111 106 107 109 108 113 113 109 109 109 109 114 115
104 77 41 352 300 285 75 120 134 135 115 129 148 144 86 189 169 136 137 132 132 122 138 147 153 154 148 138 134 128 121 109 107 96 96 106 111 114 116 113 114 109 105 112 109 103 105 108 113
84 118 46 9 332 18 93 142 143 106 99 141 104 114 133 147 137 141 140 137 137 138 147 159 157 162 152 144 141 143 129 121 115 107 106 112 118 114 119 124 122 119 113 113 110 105 98 94 92
117 99 128 301 337 355 159 151 163 116 120 155 143 100 94 131 140 139 135 127 125 141 148 154 163 169 160 154 152 141 138 133 129 122 112 120 120 125 129 129 128 127 126 117 113 112 107 97 89
116 106 117 67 341 268 338 183 136 138 106 112 147 147 155 159 144 120 129 129 138 141 150 145 174 164 148 161 161 158 154 148 146 129 130 123 133 128 136 122 143 129 125 123 121 122 113 106 105
54 70 148 157 67 285 323 168 68 73 124 166 127 142 136 137 132 130 135 131 142 157 150 157 165 160 159 160 188 173 168 165 166 150 150 127 70 118 115 155 158 141 137 126 124 114 104 104 103
53 34 179 157 175 220 284 206 136 116 133 90 84 104 127 139 142 145 152 156 162 177 172 174 162 169 171 171 209 167 177 155 148 135 95 138 149 210 144 177 176 162 146 137 131 125 120 85 108
327 78 123 227 188 218 215 142 148 130 215 192 161 148 147 147 150 148 157 165 169 172 181 172 165 166 173 177 173 186 186 147 175 161 168 172 164 268 173 179 322 346 142 82 91 107 121 125 121
334 173 221 253 110 284 197 153 101 110 312 224 153 157 152 153 159 164 150 139 157 179 187 163 153 169 192 180 186 197 191 180 185 189 178 178 172 221 216 182 206 183 129 131 117 148 158 132 129
208 76 154 236 293 113 101 84 123 55 45 115 133 148 156 155 160 139 127 142 243 204 192 176 170 185 193 195 198 205 204 199 187 192 186 176 193 210 209 202 179 161 166 148 139 174 169 187 129
313 326 332 279 293 268 137 120 115 107 119 120 139 147 157 163 153 149 150 184 196 215 194 174 187 195 198 197 202 208 202 207 194 190 194 193 202 189 184 218 186 170 176 173 164 180 153 177 177
293 333 345 279 199 273 140 100 92 137 134 137 150 146 161 166 164 173 183 180 190 202 186 186 189 194 199 204 211 205 203 198 194 211 201 206 193 191 178 190 173 175 176 178 156 142 185 183 170
247 347 337 284 33 159 95 272 130 146 139 147 153 160 172 174 184 186 180 199 194 208 198 190 193 190 193 201 211 213 199 201 212 224 188 212 199 185 174 187 187 167 185 172 148 141 240 260 208
349 293 247 300 234 49 117 353 143 151 149 154 166 172 181 189 194 181 189 206 201 208 202 191 189 188 194 201 204 201 209 215 211 207 196 218 193 191 169 177 187 194 184 165 159 156 157 209 249
214 205 264 256 282 173 273 160 156 160 170 173 170 183 200 200 211 195 193 198 195 198 204 199 193 190 185 182 187 220 220 227 191 219 214 211 184 185 176 180 190 174 182 175 174 157 186 187 201
208 212 238 239 328 28 201 53 175 172 176 179 176 196 209 220 221 211 209 209 202 195 193 190 189 183 162 159 177 216 226 212 210 195 212 200 180 183 185 184 178 180 192 182 184 139 175 211 164
222 192 250 337 102 207 350 217 171 178 201 186 185 199 217 216 215 218 217 214 211 197 203 198 199 180 186 190 190 173 174 214 170 186 202 203 190 186 183 178 177 200 176 177 179 164 148 174 175
215 170 208 205 73 13 34 306 165 198 196 188 194 207 213 214 211 211 210 215 216 215 198 201 204 197 191 190 138 108 73 71 179 225 211 209 188 191 194 193 183 181 174 196 185 178 165 160 194
297 189 159 140 119 213 64 273 315 189 192 198 207 204 206 215 218 216 213 219 215 216 212 206 195 201 196 180 185 195 203 209 211 203 193 191 189 201 201 192 196 186 176 197 198 176 165 147 179
227 121 151 157 87 87 300 44 268 120 212 213 206 211 209 212 210 213 213 215 218 212 204 197 195 196 190 191 196 193 208 218 171 174 192 191 188 198 210 199 183 198 188 196 193 167 169 179 161
116 83 47 53 64 4 356 137 296 154 263 172 209 213 207 210 213 215 213 208 215 214 210 195 192 200 192 191 196 200 206 199 196 194 214 186 187 208 213 201 189 193 195 189 193 188 181 184 190
64 62 3 34 33 220 302 101 255 297 275 220 174 205 214 215 215 210 210 205 210 207 209 204 191 200 196 193 197 202 206 194 206 209 212 180 181 204 217 204 195 191 195 190 181 183 191 184 190
62 137 145 182 164 271 350 267 278 316 308 157 121 164 185 221 230 221 210 203 207 203 198 196 191 194 187 193 204 203 207 201 212 201 198 211 209 213 189 203 207 199 190 189 183 188 191 193 202
152 44 167 103 19 74 274 291 322 342 29 38 25 0 316 296 281 212 201 204 203 199 191 188 189 194 187 195 201 205 200 201 205 198 192 205 216 221 207 196 208 205 203 198 187 195 193 186 203
112 151 40 13 105 77 312 284 235 282 170 282 264 255 295 322 343 345 184 180 142 163 171 182 189 194 193 193 197 205 201 201 208 176 204 211 213 192 205 232 210 204 201 200 197 193 195 190 203
14 40 52 109 101 145 121 274 219 210 216 231 267 255 13 3 10 31 63 107 142 155 183 189 191 183 189 183 197 200 206 201 190 197 206 215 202 185 194 188 228 216 208 204 204 205 201 199 203
4 109 107 112 225 82 131 279 262 250 324 7 305 20 356 50 31 46 65 80 101 68 58 74 138 140 133 132 144 268 317 259 201 216 213 200 217 205 200 182 200 205 211 201 206 210 208 212 205